Bellingham, WA
on Sunday, January 6, 2013

Sunday
Previous Day Next Day
Daily Summary
 ActualAverageRecord
Temperature
Mean Temperature °F 38°F  
Max Temperature 45°F 45°F 58°F (2002)
Min Temperature 41°F 32°F 1°F (1982)
Degree Days
Heating Degree Days 22 27  
Month to date heating degree days 162  
Cooling Degree Days 0 0  
Month to date cooling degree days 0  
Year to date cooling degree days 0  
Moisture
Dew Point 38°F   
Average Humidity 84    
Maximum Humidity 89    
Minimum Humidity 76    
Precipitation
Precipitation 0.08 in 0.14 in 1.52 in (2009)
Month to date precipitation 0.85  
Year to date precipitation 0.85  
Wind
Wind Speed 9 mph   
Max Wind Speed 15 mph   
Max Gust Speed 24 mph   
Visibility 10 miles   
Events Rain   

Key: T is trace of precipitation, MM is missing value
Source: NWS Daily Summary
Time(PST)TemperatureDew PointHumidity Pressure Visibility Wind DirectionWind SpeedGust SpeedPrecipitationEvents Conditions
12:53 AM 43.0°F 39.0°F 86% 30.13 in 10.0 miles SSE 6.9 mph - N/A   Overcast
1:53 AM 43.0°F 39.0°F 86% 30.15 in 10.0 miles SSE 6.9 mph - N/A   Overcast
2:53 AM 43.0°F 39.0°F 86% 30.15 in 10.0 miles SSE 4.6 mph - N/A   Overcast
3:53 AM 42.1°F 39.0°F 89% 30.15 in 10.0 miles South 9.2 mph - N/A   Overcast
4:06 AM 42.8°F 39.2°F 87% 30.12 in 10.0 miles South 8.1 mph - N/A   Overcast
4:42 AM 42.8°F 39.2°F 87% 30.12 in 10.0 miles SSE 12.7 mph - N/A   Overcast
4:53 AM 43.0°F 39.0°F 86% 30.15 in 10.0 miles South 12.7 mph - N/A   Overcast
5:44 AM 42.8°F 39.2°F 87% 30.11 in 10.0 miles SSE 11.5 mph 21.9 mph N/A   Overcast
5:53 AM 42.1°F 37.9°F 85% 30.14 in 10.0 miles South 12.7 mph 20.7 mph N/A   Overcast
6:53 AM 43.0°F 37.0°F 80% 30.15 in 10.0 miles SSE 9.2 mph - N/A   Overcast
7:53 AM 43.0°F 37.0°F 80% 30.15 in 10.0 miles SSE 9.2 mph - N/A   Overcast
8:53 AM 43.0°F 37.9°F 82% 30.15 in 10.0 miles SSE 5.8 mph - N/A   Partly Cloudy
9:53 AM 44.1°F 39.0°F 82% 30.16 in 10.0 miles SSE 9.2 mph - 0.00 in   Overcast
10:53 AM 44.1°F 39.0°F 82% 30.16 in 10.0 miles SSE 5.8 mph - 0.00 in Rain Light Rain
11:53 AM 44.1°F 39.0°F 82% 30.13 in 10.0 miles SSE 8.1 mph - 0.00 in Rain Light Rain
12:20 PM 44.6°F 37.4°F 76% 30.10 in 10.0 miles SSE 10.4 mph - 0.00 in   Overcast
12:53 PM 45.0°F 37.9°F 76% 30.12 in 10.0 miles SSE 11.5 mph 17.3 mph 0.00 in   Overcast
1:53 PM 45.0°F 37.9°F 76% 30.11 in 10.0 miles SSE 8.1 mph 17.3 mph N/A   Overcast
2:53 PM 45.0°F 37.9°F 76% 30.09 in 10.0 miles SE 11.5 mph - 0.00 in Rain Light Rain
3:53 PM 45.0°F 39.0°F 80% 30.09 in 10.0 miles SSE 9.2 mph - 0.00 in Rain Light Rain
4:53 PM 44.1°F 39.9°F 85% 30.07 in 10.0 miles SSE 11.5 mph - 0.00 in Rain Light Rain
5:53 PM 43.0°F 39.9°F 89% 30.06 in 10.0 miles ESE 9.2 mph - 0.00 in Rain Light Rain
6:53 PM 43.0°F 39.0°F 86% 30.06 in 8.0 miles SE 13.8 mph - 0.01 in Rain Light Rain
7:53 PM 42.1°F 39.0°F 89% 30.05 in 10.0 miles SE 15.0 mph - 0.03 in Rain Light Rain
8:53 PM 42.1°F 37.9°F 85% 30.02 in 10.0 miles SE 15.0 mph 23.0 mph 0.02 in Rain Light Rain
9:53 PM 42.1°F 37.9°F 85% 30.01 in 9.0 miles SE 15.0 mph 24.2 mph 0.01 in Rain Light Rain
10:53 PM 41.0°F 37.9°F 89% 29.99 in 10.0 miles SE 10.4 mph 17.3 mph 0.01 in Rain Light Rain
11:00 PM 42.8°F 37.4°F 81% 29.97 in 10.0 miles ESE 9.2 mph - 0.00 in Rain Light Rain
11:53 PM 42.1°F 37.9°F 85% 29.99 in 9.0 miles East 6.9 mph - 0.00 in Rain Light Rain
Moon Phase
Jan. 06 Jan. 11 Jan. 18 Jan. 26 Feb. 03
Sunrise:08:02 AM (PST) Moon Rise:02:12 AM (PST)1/6
Sunset:04:30 PM (PST) Moon Set:12:10 PM (PST)1/6

Copyright © 2014 The Weather Underground, Inc.